Zurück zum Katalog

STARLINK-4584

AktivKommunikationVLEO
NORAD 53571·PAYLOAD·🇺🇸 United States

Gestartet Aug 19, 2022 von Cape Canaveral Space Force Station

Loading…

Nächste Überflüge (nächste 24 Stunden)

TLE

AktuellSource: CelesTrak SupGP

Epoche: Sep 14, 2026, 13:52 UTC

1 53571C 22101AW  26257.57826389  .00006801  00000+0  20093-3 0  2575
2 53571  53.1560 271.6190 0001238  84.4389 126.3477 15.34387105    17

Verfolge STARLINK-4584 in Echtzeit mit AllMySat

Download on the App Store